Tracking 29892 objects as of 21-Nov-2024
HD Live streaming from Space Station
objects crossing your sky now

STARLINK-30864

Track STARLINK-30864 now!
10-day predictions
STARLINK-30864 is classified as:


NORAD ID: 58243
Int'l Code: 2023-171P
Perigee: 565.6 km
Apogee: 566.8 km
Inclination: 43.0 °
Period: 95.8 minutes
Semi major axis: 6937 km
RCS: Unknown
Launch date: November 8, 2023
Source: United States (US)
Launch site: AIR FORCE EASTERN TEST RANGE (AFETR)
Your satellite tracking list
Your tracking list is empty




NASA's NSSDC Master Catalog

Two Line Element Set (TLE):
1 58243U 23171P   24325.46169169  .00000641  00000-0  62526-4 0  9990
2 58243  42.9992 342.4535 0000800 264.1494  95.9257 15.02541230 58297
Source of the keplerian elements: AFSPC